Location: Unspecified
(58.7730°N, 5.8460°E)
Time: 17:34:29
(UTC+02:00)

CZ-3 Stage 3 - Visible Passes

Search period start: 27 April 2015 00:00
Search period end: 07 May 2015 00:00
Orbit: 419 x 34810 km, 31.0° (Epoch: 23 April)

Date Brightness Start Highest point End Pass type
(mag) Time Alt. Az. Time Alt. Az. Time Alt. Az.
27 Apr 8.2 14:40:57 10° WSW 22:27:51 22° W 23:15:52 10° WSW visible
30 Apr 8.3 14:35:36 10° WSW 22:19:53 21° W 23:07:55 10° WSW visible
03 May 8.5 14:30:11 10° WSW 22:11:44 20° W 22:59:36 10° WSW visible
06 May 8.6 14:24:43 10° WSW 22:03:25 20° W 22:50:52 10° WSW visible
